CAS-4B
1 42759U 17034B 19059.57637953 .00000056 00000-0 16968-4 0 9996
2 42759 43.0167 115.5219 0011947 278.7876 232.0564 15.09493423 94196
CAS-4A
1 42761U 17034D 19059.47546601 .00000110 00000-0 20301-4 0 9994
2 42761 43.0178 115.6841 0012444 278.7929 213.0510 15.09570165 94172
UCLSat
1 42765U 17036A 19058.86582678 .00001147 00000-0 52526-4 0 9991
2 42765 097.3667 119.1738 0009960 257.4134 102.5989 15.22453527094197
NIUSat
1 42766U 17036B 19058.78187582 .00000810 00000-0 39680-4 0 9990
2 42766 97.3667 117.7848 0014295 246.7316 113.2416 15.20874089 93375
LituanicaSAT 2
1 42768U 17036D 19058.90743581 .00001783 00000-0 80235-4 0 9995
2 42768 097.3696 118.7748 0013846 246.5827 113.3954 15.22324158093451
Aalto 1
1 42775U 17036L 19059.08971445 .00000730 00000-0 35811-4 0 9996
2 42775 97.3655 118.3874 0012587 245.3841 114.6084 15.21142080 93396
URSA MAIOR
1 42776U 17036M 19058.73067277 .00000737 00000-0 36008-4 0 9993
2 42776 097.3663 118.1498 0012375 246.6793 113.3141 15.21259854093344
Max Valier Sat
1 42778U 17036P 19058.80650606 .00000772 00000-0 37052-4 0 9996
2 42778 97.3697 118.8411 0010909 250.4517 109.5542 15.21785409 93378
Pegasus
1 42784U 17036V 19058.80667980 .00000966 00000-0 45000-4 0 9993
2 42784 97.3671 118.9720 0010513 258.0598 101.9460 15.22220504 93393
NUDATSat
1 42787U 17036Y 19059.19827342 .00001416 00000-0 63060-4 0 9996
2 42787 97.3707 119.8624 0010086 263.4312 96.5776 15.23054340 93324
SUCHAI 1
1 42788U 17036Z 19058.84216012 .00001191 00000-0 54229-4 0 9991
2 42788 97.3673 119.2345 0010099 257.0574 102.9535 15.22585737 93484
SKCUBE
1 42789U 17036AA 19058.91715471 .00001134 00000-0 51891-4 0 9992
2 42789 097.3671 119.2712 0009970 256.9018 103.1106 15.22507363093417
VZLUSAT 1
1 42790U 17036AB 19058.92256495 .00001512 00000-0 67090-4 0 9999
2 42790 097.3682 119.5959 0009577 256.0595 103.9577 15.23060172093436
VENTA 1
1 42791U 17036AC 19058.82703910 .00001070 00000-0 49085-4 0 9991
2 42791 097.3669 119.2330 0009602 257.8791 102.1370 15.22531371093398
Robusta 1B
1 42792U 17036AD 19058.79416575 .00001125 00000-0 51260-4 0 9995
2 42792 97.3671 119.2703 0009533 258.2068 101.8099 15.22668783 93416
D-SAT
1 42794U 17036AF 19058.94548774 .00000385 00000-0 38704-4 0 9996
2 42794 097.5563 108.4277 0127569 150.1615 210.6957 14.91027094091839
BIRD-J
1 42820U 98067MU 19059.17631417 .00100530 00000-0 36836-3 0 9998
2 42820 51.6291 123.4895 0004386 31.5994 328.5273 15.87533397 94213
BIRD-G
1 42821U 98067MV 19059.42375293 .00089058 00000-0 37582-3 0 9994
2 42821 51.6253 125.1304 0003770 32.6458 327.4778 15.84674866 94198
BIRD-M
1 42822U 98067MW 19059.17831295 .00088418 00000-0 34781-3 0 9993
2 42822 51.6308 125.0481 0004120 35.0341 325.0934 15.86133789 94175
BIRD-B
1 42823U 98067MX 19059.19252913 .00094820 00000-0 35944-3 0 9996
2 42823 51.6275 124.3753 0004637 47.8049 312.3349 15.86862828 94185
BIRD-N
1 42824U 98067MY 19059.41411963 .00099535 00000-0 39480-3 0 9991
2 42824 51.6315 124.4356 0004399 54.7868 305.3547 15.85915494 94192
TechnoSat
1 42829U 17042E 19059.34531710 .00000099 00000-0 15461-4 0 9996
2 42829 97.5769 316.7312 0015699 69.5024 290.7878 14.90928145 88492
TOMSK-TPU 120
1 42910U 98067MZ 19059.40489022 .00022951 00000-0 15763-3 0 9993
2 42910 51.6354 140.0142 0004753 88.8761 351.9519 15.74573766 87606
TANYUSHA 1
1 42911U 98067NA 19059.49035316 .00033949 00000-0 19192-3 0 9995
2 42911 51.6283 134.5194 0004829 72.0258 26.2065 15.78769099 87667
TANYUSHA 2
1 42912U 98067NB 19059.47236747 .00028034 00000-0 17379-3 0 9999
2 42912 51.6344 137.5182 0003572 82.1540 14.0103 15.76807553 87648
TNS 0-2
1 42914U 98067ND 19059.45426776 .00041534 00000-0 27918-3 0 9992
2 42914 51.6337 140.5951 0003815 83.2840 276.8593 15.74744056 87596
QIKCOM-1
1 42983U 98067NF 19059.53873740 .00004114 00000-0 60409-4 0 9990
2 42983 51.6397 172.9112 0004498 75.6556 284.4936 15.58003384 76164
AO-91
1 43017U 17073E 19059.35024549 .00000387 00000-0 35505-4 0 9999
2 43017 97.7217 345.0440 0259239 157.4026 203.8851 14.78400011 68956
EcAMSat
1 43019U 98067NG 19059.52914515 .00007284 00000-0 95167-4 0 9996
2 43019 51.6398 169.8787 0005045 53.0937 307.0517 15.59825012158520
PICSAT
1 43132U 18004X 19058.76320973 .00001127 00000-0 50600-4 0 9992
2 43132 97.5016 126.7467 0008233 286.1054 73.9276 15.23258769 62615
AO-92
1 43137U 18004AC 19058.94633769 .00000925 00000-0 42104-4 0 9992
2 43137 97.5009 126.9392 0007786 287.8023 72.2363 15.23217282 62633
TianYi 2
1 43155U 18008A 19059.42686324 .00000654 00000-0 42937-4 0 9998
2 43155 97.4967 134.2397 0017696 349.4999 139.2049 15.10950716 61175
Zhou Enlai
1 43156U 18008B 19059.49053537 .00000300 00000-0 22068-4 0 9991
2 43156 97.5008 134.2160 0014346 348.3738 69.1490 15.10440441 61168
TianYi 6
1 43158U 18008D 19059.13558897 .00000071 00000-0 82075-5 0 9993
2 43158 97.4950 133.4745 0013651 345.8911 213.2152 15.10069997 61078
S-Net G
1 43186U 18014G 19059.17450093 .00000266 00000-0 28439-4 0 9993
2 43186 97.7165 329.1968 0011788 23.6116 336.5644 14.96589998 58609
S-Net H
1 43187U 18014H 19059.50862946 .00000247 00000-0 26807-4 0 9991
2 43187 97.7163 329.5174 0011779 22.4167 337.7567 14.96590220 58656
S-Net J
1 43188U 18014J 19058.97353831 .00000330 00000-0 34026-4 0 9995
2 43188 97.7166 329.0028 0011814 24.3208 335.8569 14.96590337 58571
S-Net K
1 43189U 18014K 19059.50872056 .00000240 00000-0 26186-4 0 9999
2 43189 97.7163 329.5156 0011754 22.4038 337.7695 14.96589857 57204
FMN 1
1 43192U 18015A 19058.96321549 .00001364 00000-0 59486-4 0 9996
2 43192 097.3822 188.2715 0015663 329.0682 030.9630 15.23787152059450
Shaonian Xing
1 43199U 18015H 19058.95001652 .00001014 00000-0 44106-4 0 9997
2 43199 097.3604 187.6060 0016817 341.5311 018.5305 15.24420989059499
1KUNS-PF
1 43466U 98067NP 19059.51367331 .00022917 00000-0 26186-3 0 9993
2 43466 51.6377 171.9939 0000829 17.2776 342.8246 15.62074683 45675
UBAKUSAT
1 43467U 98067NQ 19059.52939925 .00014290 00000-0 17815-3 0 9993
2 43467 51.6376 173.5945 0002727 13.8836 346.2232 15.60171355 45662
Irazu
1 43468U 98067NR 19059.52430228 .00028707 00000-0 30812-3 0 9996
2 43468 51.6371 170.5594 0000905 2.6178 357.4821 15.63548653145689
EnduroSat One
1 43551U 98067NZ 19059.53294255 .00018235 00000-0 22988-3 0 9998
2 43551 51.6379 175.8601 0005967 89.4198 270.7478 15.59650857 35863
EQUISat
1 43552U 98067PA 19058.54962169 .00010060 00000-0 13317-3 0 9999
2 43552 51.6386 181.2988 0006387 86.4619 273.7104 15.58964779 35660
UiTMSat 1
1 43589U 98067PD 19058.54953581 .00010947 00000-0 14540-3 0 9990
2 43589 51.6361 182.0296 0005588 94.5461 265.6170 15.58769806 31394
Maya 1
1 43590U 98067PE 19058.61026723 .00011251 00000-0 14910-3 0 9999
2 43590 051.6362 181.6867 0005675 095.6736 264.4904 15.58795550031331
Bhutan 1
1 43591U 98067PF 19058.60474359 .00011123 00000-0 14720-3 0 9998
2 43591 51.6375 181.6558 0005858 96.0673 264.0987 15.58846883 31334
SiriusSat 1
1 43595U 98067PG 19058.54088286 .00010107 00000-0 13751-3 0 9999
2 43595 51.6367 182.7217 0003672 49.9507 310.1807 15.58230536 30490
SiriusSat 2
1 43596U 98067PH 19059.13700920 .00012991 00000-0 17572-3 0 9990
2 43596 51.6378 179.9737 0004321 53.2690 306.8698 15.58087602 30585
